sat.trackr.live / text

‹ back to catalog

STARLINK-31307

NORAD 59089 · 2024-041R

PAYLOAD ACTIVE UNKNOWN

§ Identity

Operator
Country
US
Launch date
2024-02-29
Launch site
AFETR
Launch vehicle
Mass (kg)
RCS (m²)

Purposes: comms

External: N2YO · Heavens-Above · Gunter

§ Orbital elements

Epoch: 2026-09-20T08:17:31.252704Z

Period
94.27 min
Inclination
43.0044°
Eccentricity
0.0001319
Mean motion
15.27576774 rev/d
Perigee alt
482.2 km
Apogee alt
484.0 km
Semi-major
6,861.2 km
B*
2.7069e-5
RAAN
291.2220°
Arg perigee
266.4905°
Mean anomaly
93.5796°
Rev number
14,409

§ Raw data

STARLINK-313071 59089U 24041R   26263.34550061  .00000483  00000+0  27069-4 0  99972 59089  43.0044 291.2220 0001319 266.4905  93.5796 15.27576774144090

JSON: /api/v1/satellites/59089 · /tle

For live sub-satellite position, see the globe view (requires WebGL).

§ Visibility from observer

Set your observer location to see the next 7 days of passes ≥ 10°. The values pass through the URL so the page stays shareable.

No JS? Fill the form by hand. The geolocation button needs JavaScript.